Weather Roundup
Issued by NWS

Home | Current Version | Previous Version | Graphics & Text | Print | Product List | Glossary Off
Versions: 1 2 3 4 5 6 7 8 9 10 11 12 13 14 15 16 17 18 19 20 21 22 23 24 25 26 27 28 29 30 31 32 33 34 35 36 37 38 39 40 41 42 43 44 45 46 47 48 49 50

000
NZUS93 KARX 301610
HRRWXR

CURRENT HOURLY OBSERVATIONS ACROSS
MUCH OF THE UPPER MISSISSIPPI VALLEY
NATIONAL WEATHER SERVICE LA CROSSE WI
1100 AM CDT SAT APR 30 2016


...SOUTHEAST MINNESOTA...


CITY           SKY/WX    TMP DP  RH WIND       PRES   REMARKS
ROCHESTER      CLOUDY    45  36  70 E16       30.02S
ROCHESTER/MAYO FAIR      46  32  59 NE14G22   30.03S
WINONA         CLOUDY    52  36  54 E8        30.05S
AUSTIN         MIX PCPN  45  39  81 E16G23    29.98R
ALBERT LEA     CLOUDY    45  41  87 E17G24    29.97R
DODGE CENTER   CLOUDY    46  37  71 E20       30.01S
PRESTON        LGT RAIN  43  37  77 E15G22    30.01S
OWATONNA       CLOUDY    48  37  66 E24G31    30.01S
FARIBAULT      CLOUDY    48  37  66 NE15      30.04S
$$

...ELSEWHERE IN MINNESOTA...


CITY           SKY/WX    TMP DP  RH WIND       PRES   REMARKS
MINNEAPOLIS    CLOUDY    53  32  44 NE18      30.07F
INTNL FALLS    SUNNY     49  28  44 E10       30.30F
DULUTH         MOSUNNY   47  32  56 E23G31    30.24S
RED WING       CLOUDY    50  32  50 E14G21    30.06S
REDWOOD FALLS  CLOUDY    47  35  63 NE12G26   30.02F
MANKATO        CLOUDY    50  39  66 E22G31    30.01S
WORTHINGTON    LGT RAIN  42  40  92 E21G29    29.95R FOG
FAIRMONT       CLOUDY    45  36  70 E17G23    29.96R
$$

...SOUTHWEST WISCONSIN...


CITY           SKY/WX    TMP DP  RH WIND       PRES   REMARKS
LA CROSSE      CLOUDY    49  33  54 E10G18    30.05S
PRAIRIE DU CHI LGT RAIN  48  37  64 NE10G16   29.99S
BOSCOBEL       CLOUDY    50  38  63 NE9G17    30.02S
LONE ROCK      CLOUDY    49  39  68 E14       30.03F
PLATTEVILLE    CLOUDY    47  44  90 E18G24    29.96F
FORT MC COY    CLOUDY    48  36  64 E9        30.07S
CAMP DOUGLAS   CLOUDY    48  43  81 E15       30.07S
MAUSTON-NEW LI CLOUDY    49  36  60 E8        30.07
VIROQUA        CLOUDY    45  33  63 E16G22    30.02F
WIS DELLS      CLOUDY    48  37  66 E14       30.06F
$$

...ELSEWHERE IN WISCONSIN...


CITY           SKY/WX    TMP DP  RH WIND       PRES   REMARKS
MILWAUKEE      CLOUDY    45  39  79 E14       30.09F
MADISON        CLOUDY    48  40  73 E15       30.05F
GREEN BAY      PTSUNNY   50  41  71 NE14      30.15F
EAU CLAIRE     CLOUDY    51  33  50 NE21G26   30.09F
BLACK RVR FLS  FAIR      50  32  50 NE15      30.07S
MEDFORD        CLOUDY    51  33  49 E16G22    30.12S
WAUSAU         CLOUDY    55  31  39 E20G25    30.11S
WIS RAPIDS     CLOUDY    51  33  50 E13       30.12R
MARSHFIELD     CLOUDY    51  33  50 E16       30.10S
RICE LAKE      CLOUDY    53  31  44 NE15G23   30.15S
$$

...NORTHEAST IOWA...


CITY           SKY/WX    TMP DP  RH WIND       PRES   REMARKS
WATERLOO       LGT RAIN  45  42  89 E24G31    29.88F FOG
DUBUQUE        NOT AVBL
DECORAH        CLOUDY    45  41  87 E16       29.98S
MASON CITY     LGT RAIN  45  42  89 E21G30    29.93S FOG
CHARLES CITY   LGT RAIN  45  45 100 E17G26    29.95R
OELWEIN        LGT RAIN  45  45 100 NE22G30   29.92S
$$

...ELSEWHERE IN IOWA...


CITY           SKY/WX    TMP DP  RH WIND       PRES   REMARKS
DES MOINES     RAIN      48  44  86 E12G25    29.76S FOG
IOWA CITY      LGT RAIN  48  46  93 E16G24    29.85F FOG
FORT DODGE     CLOUDY    45  39  81 NE15G22   29.85F
MARSHALLTOWN   LGT RAIN  45  43  93 E22G35    29.81F FOG
CEDAR RAPIDS   LGT RAIN  47  46  97 E23G31    29.83F FOG
$$

...NORTHERN ILLINOIS...


CITY           SKY/WX    TMP DP  RH WIND       PRES   REMARKS
CHICAGO-OHARE  LGT RAIN  47  40  76 E13       30.03F
CHICAGO-MIDWAY LGT RAIN  48  41  76 E14       30.03S
MOLINE         LGT RAIN  50  46  86 E22       29.85F FOG
ROCKFORD       LGT RAIN  49  43  80 E13       30.01F HAZE
PEORIA         LGT RAIN  52  50  93 E9        29.85F
$$

NOTE: "FAIR" INDICATES FEW OR NO CLOUDS BELOW 12,000 FEET WITH NO
SIGNIFICANT WEATHER AND/OR OBSTRUCTIONS TO VISIBILITY. WIND
SPEEDS ARE IN MILES-PER-HOUR.




USA.gov is the U.S. government's official web portal to all federal, state and local government web resources and services.